IU1DOF-3 Weather Reports


Display with metric or nautical units.
time (UTC)temp
F
wind
direction
speed
MPH
gust
MPH
rain 1hr
in
rain 24hr
in
rain mn
in
humidity
%
barometer
mb
20260906094603 79 245 5.0 8.0 0.00 0.00 0.00 56 1022.4
20260906093538 79 259 3.0 4.0 0.00 0.00 0.00 55 1022.1
20260906092516 78 272 0.0 2.0 0.00 0.00 0.00 56 1022.3
20260906091450 78 261 3.0 4.0 0.00 0.00 0.00 56 1022.4
20260906090442 79 238 3.0 4.0 0.00 0.00 0.00 54 1022.2
20260906085433 79 240 1.0 2.0 0.00 0.00 0.00 56 1022.4
20260906084426 77 274 0.0 0.0 0.00 0.00 0.00 61 1022.4
20260906083418 78 280 1.0 1.0 0.00 0.00 0.00 56 1022.4
20260906082409 77 280 1.0 2.0 0.00 0.00 0.00 58 1022.4
20260906081402 77 207 0.0 1.0 0.00 0.00 0.00 59 1022.2
20260906080354 74 283 0.0 0.0 0.00 0.00 0.00 65 1022.2
20260906075340 73 283 0.0 1.0 0.00 0.00 0.00 70 1022.3
20260906074322 73 283 0.0 0.0 0.00 0.00 0.00 69 1022.4
20260906073314 72 283 0.0 0.0 0.00 0.00 0.00 68 1022.3
20260906072251 73 284 0.0 0.0 0.00 0.00 0.00 69 1022.4
20260906071240 72 284 0.0 0.0 0.00 0.00 0.00 69 1022.2
20260906070219 72 295 0.0 0.0 0.00 0.00 0.00 68 1022.3
20260906065154 70 295 0.0 0.0 0.00 0.00 0.00 75 1022.4
20260906064141 68 295 0.0 0.0 0.00 0.00 0.00 76 1022.3
20260906063122 69 296 0.0 0.0 0.00 0.00 0.00 73 1022.2
20260906062059 68 296 0.0 0.0 0.00 0.00 0.00 72 1022.2
20260906061040 64 296 0.0 0.0 0.00 0.00 0.00 83 1022.1
20260906060026 63 297 1.0 1.0 0.00 0.00 0.00 83 1021.9
20260906055003 63 297 0.0 1.0 0.00 0.00 0.00 83 1021.9
20260906053941 62 297 1.0 2.0 0.00 0.00 0.00 83 1021.8
20260906052930 61 300 0.0 0.0 0.00 0.00 0.00 83 1021.7
20260906051906 61 300 0.0 0.0 0.00 0.00 0.00 84 1021.4
20260906050844 62 300 1.0 2.0 0.00 0.00 0.00 82 1021.3
20260906045818 61 300 2.0 2.0 0.00 0.00 0.00 85 1021.3
20260906044756 61 295 1.0 1.0 0.00 0.00 0.00 85 1021.4
20260906043741 62 300 1.0 1.0 0.00 0.00 0.00 84 1021.1
20260906042723 62 300 0.0 0.0 0.00 0.00 0.00 83 1021.1
20260906041658 62 300 0.0 0.0 0.00 0.00 0.00 85 1021.1
20260906040634 62 300 1.0 2.0 0.00 0.00 0.00 84 1021.2
20260906035626 62 295 0.0 0.0 0.00 0.00 0.00 83 1020.9
20260906034618 63 300 2.0 2.0 0.00 0.00 0.00 82 1020.6
20260906033556 61 300 1.0 1.0 0.00 0.00 0.00 87 1020.8
20260906032541 62 300 0.0 1.0 0.00 0.00 0.00 84 1020.6
20260906031522 63 298 1.0 1.0 0.00 0.00 0.00 83 1020.6
20260906030458 62 298 1.0 1.0 0.00 0.00 0.00 86 1020.7
20260906025440 63 301 1.0 2.0 0.00 0.00 0.00 82 1020.5
20260906024426 62 301 1.0 1.0 0.00 0.00 0.00 84 1020.3
20260906023402 63 301 1.0 2.0 0.00 0.00 0.00 81 1020.5
20260906022339 62 301 1.0 2.0 0.00 0.00 0.00 79 1020.4
20260906021315 62 300 0.0 0.0 0.00 0.00 0.00 82 1020.2
20260906020249 63 302 0.0 0.0 0.00 0.00 0.00 82 1020.4
20260906015241 63 301 1.0 1.0 0.00 0.00 0.00 77 1020.4
20260906014219 63 302 1.0 1.0 0.00 0.00 0.00 82 1020.2
20260906013154 63 301 2.0 2.0 0.00 0.00 0.00 80 1020.2
20260906012141 64 302 1.0 2.0 0.00 0.00 0.00 79 1020.2
20260906011122 63 301 0.0 0.0 0.00 0.00 0.00 80 1020.2
20260906010059 63 301 2.0 3.0 0.00 0.00 0.00 80 1020.1
20260906005040 63 304 0.0 0.0 0.00 0.00 0.00 81 1020.3
20260906004027 63 302 0.0 1.0 0.00 0.00 0.00 78 1020.1
20260906003002 64 300 1.0 2.0 0.00 0.00 0.00 78 1020.3
20260906001942 64 302 1.0 2.0 0.00 0.00 0.00 77 1020.4
20260906000931 64 301 2.0 2.0 0.00 0.00 0.00 79 1020.3
20260905235906 64 301 2.0 2.0 0.00 0.00 0.00 78 1020.3
20260905234842 64 301 0.0 0.0 0.00 0.00 0.00 78 1020.5
20260905233819 65 304 1.0 1.0 0.00 0.00 0.00 75 1020.3
20260905232754 65 304 1.0 2.0 0.00 0.00 0.00 72 1020.4
20260905231742 65 301 1.0 2.0 0.00 0.00 0.00 78 1020.2
20260905230722 65 305 2.0 2.0 0.00 0.00 0.00 75 1020.0
20260905225659 65 302 2.0 2.0 0.00 0.00 0.00 75 1020.2
20260905224640 65 305 0.0 0.0 0.00 0.00 0.00 74 1020.0
20260905223626 65 304 1.0 1.0 0.00 0.00 0.00 75 1020.0
20260905222604 65 304 0.0 0.0 0.00 0.00 0.00 77 1020.2
20260905221538 65 304 1.0 2.0 0.00 0.00 0.00 76 1020.3
20260905220515 65 303 2.0 2.0 0.00 0.00 0.00 75 1020.0
20260905215451 66 302 0.0 0.0 0.00 0.00 0.00 77 1019.7
20260905214441 66 304 1.0 1.0 0.00 0.00 0.00 76 1020.0
20260905214432 66 305 1.0 2.0 0.00 0.00 0.00 76 1019.9
20260905213041 65 303 2.0 3.0 0.00 0.00 0.00 76 1019.9
20260905212026 66 302 0.0 0.0 0.00 0.00 0.00 74 1019.5
20260905211003 66 302 3.0 3.0 0.00 0.00 0.00 74 1019.7
20260905205939 67 305 2.0 2.0 0.00 0.00 0.00 73 1019.5
20260905204915 66 303 1.0 1.0 0.00 0.00 0.00 73 1019.4
20260905203851 67 302 2.0 2.0 0.00 0.00 0.00 72 1019.0
20260905202840 67 288 2.0 2.0 0.00 0.00 0.00 73 1019.0
20260905201820 67 305 0.0 1.0 0.00 0.00 0.00 74 1018.8
20260905200755 67 302 3.0 3.0 0.00 0.00 0.00 72 1019.1
20260905195740 68 304 1.0 2.0 0.00 0.00 0.00 71 1018.9
20260905194723 68 303 2.0 3.0 0.00 0.00 0.00 71 1018.5
20260905193659 68 302 2.0 2.0 0.00 0.00 0.00 73 1018.6
20260905192640 68 289 2.0 2.0 0.00 0.00 0.00 73 1018.5
20260905191628 69 302 3.0 3.0 0.00 0.00 0.00 71 1018.3
20260905190603 68 302 0.0 1.0 0.00 0.00 0.00 72 1018.2
20260905185541 69 302 2.0 2.0 0.00 0.00 0.00 72 1018.4
20260905184532 69 305 2.0 3.0 0.00 0.00 0.00 70 1018.0
20260905183522 70 302 2.0 2.0 0.00 0.00 0.00 69 1018.0
20260905182500 70 301 2.0 2.0 0.00 0.00 0.00 71 1017.8
20260905181435 71 303 2.0 3.0 0.00 0.00 0.00 68 1017.8
20260905180411 70 286 2.0 2.0 0.00 0.00 0.00 72 1017.6
20260905175348 72 303 2.0 2.0 0.00 0.00 0.00 70 1017.7
20260905174338 72 303 3.0 3.0 0.00 0.00 0.00 68 1017.4
20260905173315 73 303 2.0 3.0 0.00 0.00 0.00 70 1017.4
20260905172252 74 305 3.0 3.0 0.00 0.00 0.00 69 1017.2
20260905171240 74 305 2.0 2.0 0.00 0.00 0.00 67 1017.4
20260905170219 75 305 3.0 4.0 0.00 0.00 0.00 64 1017.2
20260905165156 75 308 3.0 4.0 0.00 0.00 0.00 67 1017.0
20260905164141 76 307 4.0 4.0 0.00 0.00 0.00 66 1017.2
20260905163123 75 306 3.0 4.0 0.00 0.00 0.00 68 1017.0
20260905162114 76 304 3.0 4.0 0.00 0.00 0.00 67 1017.0
20260905161050 77 297 4.0 4.0 0.00 0.00 0.00 68 1016.8
20260905160042 77 306 3.0 4.0 0.00 0.00 0.00 66 1016.9
20260905155019 77 307 4.0 4.0 0.00 0.00 0.00 67 1016.9
20260905153954 78 299 2.0 3.0 0.00 0.00 0.00 64 1016.9
20260905152940 78 301 3.0 3.0 0.00 0.00 0.00 65 1016.8
20260905151923 79 308 2.0 3.0 0.00 0.00 0.00 64 1016.8
20260905150900 80 299 2.0 2.0 0.00 0.00 0.00 58 1016.8
20260905145842 82 310 3.0 3.0 0.00 0.00 0.00 61 1016.9
20260905144828 81 308 2.0 2.0 0.00 0.00 0.00 61 1017.2
20260905143804 83 311 2.0 3.0 0.00 0.00 0.00 56 1017.0
20260905142739 84 305 2.0 2.0 0.00 0.00 0.00 58 1017.0
20260905141715 85 305 0.0 1.0 0.00 0.00 0.00 49 1017.0
20260905140652 87 299 2.0 2.0 0.00 0.00 0.00 36 1017.0
20260905135641 87 317 2.0 3.0 0.00 0.00 0.00 51 1017.1
20260905134620 87 312 1.0 2.0 0.00 0.00 0.00 42 1017.1
20260905133554 88 278 2.0 4.0 0.00 0.00 0.00 38 1017.2
20260905132540 88 269 0.0 1.0 0.00 0.00 0.00 43 1017.1
20260905131525 88 283 0.0 1.0 0.00 0.00 0.00 39 1017.2
20260905130500 88 302 2.0 4.0 0.00 0.00 0.00 40 1017.3
20260905125440 87 303 6.0 8.0 0.00 0.00 0.00 41 1017.4
20260905124427 86 293 3.0 3.0 0.00 0.00 0.00 42 1017.4
20260905123403 88 285 1.0 1.0 0.00 0.00 0.00 43 1017.3
20260905122339 88 302 0.0 1.0 0.00 0.00 0.00 37 1017.5
20260905121315 86 299 0.0 1.0 0.00 0.00 0.00 40 1017.5
20260905120252 86 242 5.0 6.0 0.00 0.00 0.00 43 1017.5
20260905115241 86 246 2.0 3.0 0.00 0.00 0.00 43 1017.6
20260905114220 85 248 2.0 4.0 0.00 0.00 0.00 41 1017.5
20260905113157 85 250 2.0 4.0 0.00 0.00 0.00 44 1017.7
20260905112141 85 294 2.0 3.0 0.00 0.00 0.00 46 1017.7
20260905111124 85 271 2.0 4.0 0.00 0.00 0.00 46 1017.8
20260905110059 84 227 4.0 8.0 0.00 0.00 0.00 52 1017.7
20260905105041 84 265 0.0 1.0 0.00 0.00 0.00 57 1018.1
20260905104027 82 235 3.0 6.0 0.00 0.00 0.00 58 1017.7
20260905103003 82 275 2.0 4.0 0.00 0.00 0.00 59 1017.8
20260905101939 82 259 1.0 2.0 0.00 0.00 0.00 59 1018.0
20260905100916 81 248 6.0 8.0 0.00 0.00 0.00 57 1017.9
20260905095851 81 245 2.0 3.0 0.00 0.00 0.00 56 1017.9